Date,TemperatureHighF,TemperatureAvgF,TemperatureLowF,DewpointHighF,DewpointAvgF,DewpointLowF,HumidityHigh,HumidityAvg,HumidityLow,PressureMaxIn,PressureMinIn,WindSpeedMaxMPH,WindSpeedAvgMPH,GustSpeedMaxMPH,PrecipitationSumIn
2013-2-1,14.0,10.2,5.0,12.0,6.4,1.0,93,85,70,30.23,29.90,11,5,20,0.00
2013-2-2,22.0,15.0,3.0,20.0,11.7,1.0,93,87,76,30.16,29.91,9,4,13,0.00
2013-2-3,20.0,14.4,3.0,18.0,12.0,1.0,93,90,85,29.97,29.84,13,3,19,0.00
2013-2-4,25.0,20.5,17.0,22.0,18.1,15.0,94,90,85,29.98,29.81,3,1,7,0.00
2013-2-5,28.0,19.6,3.0,27.0,17.5,1.0,95,91,82,29.94,29.75,9,4,16,0.00
2013-2-6,32.0,24.3,8.0,24.0,18.7,6.0,94,80,63,30.22,29.94,7,2,14,0.01
2013-2-7,41.0,34.0,26.0,31.0,27.6,19.0,96,78,66,30.16,29.78,6,2,11,0.01
2013-2-8,31.0,30.0,30.0,30.0,29.0,29.0,97,97,96,29.78,29.78,2,0,6,0.01
2013-2-9,30.0,30.0,30.0,29.0,29.0,29.0,97,97,97,29.78,29.78,0,0,2,0.00
2013-2-10,42.0,34.2,30.0,41.0,32.1,29.0,97,93,75,29.82,29.59,8,3,18,0.13
2013-2-11,46.0,36.0,30.0,45.0,30.5,24.0,98,80,69,29.89,29.52,16,12,32,0.05
2013-2-12,30.0,28.7,28.0,25.0,24.2,23.0,87,83,80,30.03,29.89,12,7,19,0.01
2013-2-13,42.0,33.3,22.0,31.0,27.5,21.0,94,80,64,29.79,29.69,8,3,14,0.00
2013-2-14,38.0,34.2,27.0,34.0,30.9,25.0,95,88,78,29.87,29.64,16,6,29,0.00
2013-2-15,32.0,25.9,21.0,30.0,20.8,16.0,94,81,68,30.11,29.87,9,4,16,0.00
2013-2-16,21.0,18.0,11.0,20.0,14.4,9.0,95,86,70,30.08,30.00,11,4,20,0.00
2013-2-17,26.0,15.3,-1.0,15.0,9.6,-3.0,95,79,57,30.18,30.05,5,1,10,0.00
2013-2-18,49.0,35.1,21.0,42.0,27.1,14.0,94,73,61,30.11,29.47,16,7,27,0.09
2013-2-19,45.0,24.1,16.0,42.0,20.9,13.0,94,87,78,29.96,29.39,18,11,33,0.20
2013-2-20,22.0,18.7,16.0,18.0,14.9,13.0,91,85,78,30.25,29.96,12,7,19,0.01
2013-2-21,26.0,22.7,20.0,20.0,17.5,15.0,84,80,77,30.33,30.13,8,3,17,0.00
2013-2-22,33.0,27.1,21.0,32.0,24.8,16.0,97,91,81,30.13,29.81,9,5,20,0.00
2013-2-23,31.0,26.9,24.0,26.0,22.2,20.0,91,82,70,29.90,29.85,10,6,17,0.00
2013-2-24,33.0,26.5,14.0,28.0,22.9,12.0,94,86,77,30.12,29.88,8,3,13,0.00
2013-2-25,42.0,26.0,8.0,29.0,19.6,6.0,96,79,54,30.18,30.02,4,1,8,0.04
2013-2-26,35.0,31.6,29.0,32.0,27.3,22.0,98,84,68,30.04,29.44,9,4,25,0.01
2013-2-27,34.0,32.7,32.0,34.0,32.2,32.0,99,98,95,29.56,29.42,4,1,7,0.31
2013-2-28,36.0,33.6,31.0,33.0,31.1,29.0,98,91,83,29.94,29.55,7,5,15,0.36